SCP
0 0 0 0 0 0 0 0 0 0 0 0 0 0 0 0 0 0 0 0 0 0 0 0 0 0 0 0 0 0 0 0 0 0 0 0 0 0 0 0 0 0 0 0
1 1 0 0 0 0 0 0 0 0 0 0 0 0 0 0 0 0 0 0 0 0 0 0 0 0 0 0 0 0 0 0 0 0 0 0 0 0 0 0 0 0 0 0
1 1 1 0 0 0 0 0 0 0 0 0 0 0 0 0 0 0 0 0 0 0 0 0 0 0 0 0 0 0 0 0 0 0 0 0 0 0 0 0 0 0 0 0
1 1 1 0 0 0 0 0 0 0 0 0 0 0 0 0 0 0 0 0 0 0 0 0 0 0 0 0 0 0 0 0 0 0 0 0 0 0 0 0 0 0 0 0
0 0 0 0 0 0 0 0 0 0 0 0 0 0 0 0 0 0 0 0 0 0 0 0 0 0 0 0 0 0 0 0 0 0 0 0 0 0 0 0 0 0 0 0
0 0 0 0 0 0 0 0 0 0 0 0 0 0 0 0 0 0 0 0 0 0 0 0 0 0 0 0 0 0 0 0 0 0 0 0 0 0 0 0 0 0 0 0
0 0 0 0 0 0 0 0 0 0 0 0 0 0 0 0 0 0 0 0 0 0 0 0 0 0 0 0 0 0 0 0 0 0 0 0 0 0 0 0 0 0 0 0
0 0 0 0 0 0 0 0 0 0 0 0 0 0 0 0 0 0 0 0 0 0 0 0 0 0 0 0 0 0 0 0 0 0 0 0 0 0 0 0 0 0 0 0
0 0 0 0 0 0 0 0 0 0 0 0 0 0 0 0 0 0 0 0 0 0 0 0 0 0 0 0 0 0 0 0 0 0 0 0 0 0 0 0 0 0 0 0
0 0 0 0 0 0 0 0 0 0 0 0 0 0 0 0 0 0 0 0 0 0 0 0 0 0 0 0 0 0 0 0 0 0 0 0 0 0 0 0 0 0 0 0
0 1 1 1 1 0 0 0 0 0 0 0 0 0 0 0 0 0 0 0 0 0 0 0 0 0 0 0 0 0 0 0 0 0 0 0 0 0 0 0 0 0 0 0
1 1 1 1 0 0 0 0 0 0 0 0 0 0 0 0 0 0 0 0 0 0 0 0 0 0 0 0 0 0 0 0 0 0 0 0 0 0 0 0 0 0 0 0
1 1 1 0 0 0 0 0 0 0 0 0 0 0 0 0 0 0 0 0 0 0 0 0 0 0 0 0 0 0 0 0 0 0 0 0 0 0 0 0 0 0 0 0
1 1 1 0 0 0 0 0 0 0 0 0 0 0 0 0 0 0 0 0 0 0 0 0 0 0 0 0 0 0 0 0 0 0 0 0 0 0 0 0 0 0 0 0
0 0 0 0 1 1 1 0 0 0 0 0 0 0 0 0 0 0 0 0 0 0 0 0 0 0 0 0 0 0 0 0 0 0 0 0 0 0 0 0 0 0 0 0
1 0 0 0 0 1 1 1 0 0 0 0 0 0 0 0 0 0 0 0 0 0 0 0 0 0 0 0 0 0 0 0 0 0 0 0 0 0 0 0 0 0 0 0
1 0 0 0 0 0 0 0 0 0 0 0 0 0 0 0 0 0 0 0 0 0 0 0 0 0 0 0 0 0 0 0 0 0 0 0 0 0 0 0 0 0 0 0
0 0 0 0 0 0 0 0 0 0 0 0 0 0 0 0 0 0 0 0 0 0 0 0 0 0 0 0 0 0 0 0 0 0 0 0 0 0 0 0 0 0 0 0
0 0 0 0 0 0 0 0 0 0 0 0 0 0 0 0 0 0 0 0 0 0 0 0 0 0 0 0 0 0 0 0 0 0 0 0 0 0 0 0 0 0 0 0
0 0 0 0 0 0 0 0 0 0 0 0 0 0 0 0 0 0 0 0 0 0 0 0 0 0 0 0 0 0 0 0 0 0 0 0 0 0 0 0 0 0 0 0
0 0 0 0 0 0 0 0 0 0 0 0 0 0 0 0 0 0 0 0 0 0 0 0 0 0 0 0 0 0 0 0 0 0 0 0 0 0 0 0 0 0 0 0
0 0 0 0 0 0 0 0 0 0 0 0 0 0 0 0 0 0 0 0 0 0 0 0 0 0 0 0 0 0 0 0 0 0 0 0 0 0 0 0 0 0 0 0
0 0 0 1 0 0 0 0 0 0 0 0 0 0 0 0 0 0 0 0 0 0 0 0 0 0 0 0 0 0 0 0 0 0 0 0 0 0 0 0 0 0 0 0
0 0 0 0 0 0 0 0 0 0 0 0 0 0 0 0 0 0 0 0 0 0 0 0 0 0 0 0 0 0 0 0 0 0 0 0 0 0 0 0 0 0 0 0
0 0 0 0 0 0 0 0 0 0 0 0 0 0 0 0 0 0 0 0 0 0 0 0 0 0 0 0 0 0 0 0 0 0 0 0 0 0 0 0 0 0 0 0
0 0 0 0 0 0 0 0 0 0 0 0 0 0 0 0 0 0 0 0 0 0 0 0 0 0 0 0 0 0 0 0 0 0 0 0 0 0 0 0 0 0 0 0
0 0 0 0 0 0 0 0 0 0 0 0 0 0 0 0 0 0 0 0 0 0 0 0 0 0 0 0 0 0 0 0 0 0 0 0 0 0 0 0 0 0 0 0
Wind_Speed
5 5 4 4 5 4 6 8 8 8 9 12 12 13 12 11 11 11 11 11 11 10 8 7 7 6 6 6 5 5 5 4 3 3 2 2 2 2 3 3 3 3 3 4
2 3 2 4 5 6 6 5 5 6 6 7 7 7 9 11 13 12 12 12 12 11 10 9 9 8 7 6 5 5 5 4 3 3 2 2 2 2 2 3 3 3 3 4
3 4 3 4 6 4 3 5 9 9 8 6 8 11 14 13 13 14 13 12 12 11 11 10 9 8 8 7 5 5 5 4 3 3 2 2 2 2 3 3 3 3 4 4
1 2 3 9 5 3 4 3 6 8 9 13 13 12 10 10 13 13 12 12 12 10 9 8 8 7 7 6 5 5 4 4 3 3 3 2 2 3 3 3 3 3 4 4
3 2 5 6 3 1 4 0 2 8 9 8 6 6 0 6 10 12 12 11 10 10 9 8 8 8 7 5 5 4 4 4 4 4 3 3 3 4 4 3 3 4 4 4
3 3 5 7 5 2 5 1 2 5 9 9 10 5 6 6 7 9 9 9 9 8 7 8 8 8 7 6 5 5 5 5 4 4 3 4 5 4 3 3 4 4 5 5
3 3 6 6 5 2 4 6 4 5 9 10 8 9 7 7 7 8 8 8 9 9 8 8 8 8 7 6 6 6 5 4 4 4 4 4 4 3 3 3 4 4 5 5
3 2 6 5 2 3 6 4 3 4 6 6 5 6 8 9 9 9 9 8 9 9 7 7 8 8 7 6 6 5 5 4 4 4 4 3 3 4 3 3 3 4 4 5
5 7 6 4 5 5 4 3 3 4 5 8 9 8 8 8 9 8 9 8 7 8 8 6 7 8 8 7 5 5 4 4 4 4 4 3 3 4 3 3 3 3 3 4
2 5 5 5 4 3 3 3 2 3 6 9 10 9 8 8 7 7 7 7 7 8 8 6 6 7 7 6 6 5 5 4 3 3 4 4 3 3 3 4 4 4 4 4
3 4 3 4 5 6 3 1 2 3 5 9 10 9 9 8 8 7 6 6 7 8 8 8 7 7 6 6 6 5 5 4 4 4 4 4 4 4 5 6 6 6 5 5
7 7 5 6 6 5 4 4 5 5 4 6 9 10 9 8 8 7 7 6 7 7 7 7 7 7 6 6 7 6 4 4 4 3 3 3 4 5 7 8 11 12 11 8
5 5 5 4 3 3 4 4 5 5 7 7 6 8 10 7 7 7 7 7 8 8 8 7 7 7 6 6 6 6 6 5 4 4 4 4 4 4 5 7 8 10 12 12
3 4 2 1 2 2 3 4 4 4 5 6 7 6 7 6 6 7 8 8 8 7 6 6 6 6 6 6 6 6 6 6 5 4 4 4 4 4 4 5 5 5 7 10
1 3 3 2 3 4 4 5 6 5 4 4 5 7 8 8 8 8 7 6 6 5 5 5 6 6 5 5 6 6 5 4 4 4 4 5 5 5 5 5 5 5 4 5
2 4 6 7 6 5 6 6 6 4 4 4 5 6 7 7 7 5 5 5 5 5 5 5 6 6 5 5 5 5 5 8 7 4 4 4 4 5 5 5 5 5 5 5
6 5 5 6 6 5 5 5 5 4 4 4 4 5 5 5 5 3 3 4 5 5 5 5 6 5 4 5 5 4 4 5 8 5 4 5 5 5 5 5 5 5 6 6
6 6 5 6 5 5 5 5 5 5 4 4 6 6 6 6 5 4 3 2 2 1 2 4 4 3 3 4 4 3 3 4 4 4 5 5 5 5 5 5 5 6 5 5
8 8 7 7 6 5 5 4 4 4 4 5 6 5 4 3 3 2 2 2 2 2 4 4 4 3 3 4 4 3 3 4 4 4 4 6 5 5 5 5 5 5 5 4
8 8 8 8 7 7 5 4 4 5 4 5 5 5 4 2 2 2 2 1 2 3 3 2 2 2 3 4 5 3 4 5 5 5 5 4 5 5 5 5 5 5 5 4
8 8 8 7 6 6 5 4 4 4 4 4 5 3 2 1 2 3 3 1 3 2 1 1 1 2 3 4 4 3 4 4 4 5 5 5 4 4 4 5 5 4 4 4
7 7 7 6 6 5 4 3 3 3 3 3 2 3 3 2 2 2 1 2 3 1 0 0 1 3 4 4 3 3 4 4 4 4 4 4 4 4 4 5 4 4 4 4
4 4 4 4 3 2 3 3 2 2 2 1 1 1 2 1 2 2 1 3 2 1 1 2 3 5 5 3 3 3 4 4 4 4 4 4 4 4 4 4 4 4 4 3
2 2 2 2 2 3 3 3 3 2 1 1 1 1 2 2 0 1 2 3 3 2 2 3 5 6 5 2 3 3 3 4 4 4 4 4 3 3 3 3 3 4 3 3
2 2 2 3 2 2 3 3 3 2 2 1 1 1 1 2 2 2 1 2 3 2 2 4 5 6 3 2 3 3 3 4 4 3 3 3 3 3 3 2 2 3 3 2
2 2 2 2 1 1 1 1 1 1 1 1 1 1 1 0 0 0 1 1 2 2 2 2 3 3 3 3 3 3 3 3 3 2 2 3 3 3 2 2 2 2 2 2
3 2 2 3 3 2 1 1 0 0 1 1 1 1 1 1 1 1 1 1 2 2 2 3 2 2 2 2 3 3 3 2 2 2 2 2 3 3 3 3 2 1 1 1
Wind_Direction
224 223 190 217 228 213 187 184 178 202 189 203 191 180 175 167 161 156 160 163 164 166 169 166 160 159 156 159 162 157 154 167 192 207 207 214 236 251 258 265 269 266 273 280
308 287 245 259 260 236 223 189 172 154 208 213 180 158 159 165 165 167 172 174 173 170 168 169 167 164 161 166 172 164 165 184 199 200 209 227 244 250 262 272 277 276 270 269
266 297 15 293 260 235 211 172 156 175 202 165 158 171 177 177 175 176 177 175 175 174 174 174 172 166 169 175 174 167 179 193 198 200 209 234 241 245 262 265 267 273 273 268
177 34 236 248 258 206 162 181 170 162 167 172 177 182 181 174 174 179 177 174 175 173 172 172 168 166 167 166 166 174 188 200 204 197 208 231 243 255 259 256 259 262 270 272
132 186 271 290 299 157 128 294 174 152 166 168 138 98 227 200 174 175 174 171 171 171 167 165 167 166 158 164 169 177 192 201 202 198 207 231 249 257 255 255 264 262 264 267
134 151 232 255 281 279 98 39 262 149 155 145 123 140 227 205 163 157 156 157 158 157 153 160 171 161 156 170 176 192 201 201 204 203 212 234 246 249 246 247 256 268 272 265
153 190 249 261 285 55 121 223 240 167 158 156 169 189 187 158 147 148 148 152 151 150 156 169 168 158 163 176 195 204 196 193 204 215 226 237 244 246 251 257 270 278 281 281
140 189 246 290 9 146 208 227 197 170 158 157 163 139 137 143 145 146 144 147 150 153 163 169 164 158 171 195 206 195 185 193 218 232 242 242 245 261 262 257 266 279 286 294
188 213 240 249 213 223 192 187 194 173 160 141 137 141 146 151 153 157 155 156 154 157 164 175 175 168 182 207 197 183 184 207 230 241 248 251 249 258 266 255 245 261 267 275
220 249 248 257 258 263 219 200 197 162 158 146 147 152 153 156 161 163 162 161 156 156 166 185 192 188 192 194 181 177 194 220 234 239 259 269 262 244 241 245 245 250 253 259
237 259 285 279 247 233 225 177 135 151 155 156 149 154 162 166 170 171 168 164 161 167 178 191 191 195 197 187 176 184 204 221 233 238 249 264 264 246 237 236 226 224 234 233
210 215 194 227 239 219 171 172 166 154 158 158 157 164 165 170 172 167 168 166 166 173 180 188 187 197 201 190 181 185 208 226 232 239 250 256 267 283 267 257 260 248 240 233
195 202 199 210 213 183 162 172 166 159 162 167 165 159 157 162 169 164 164 167 176 181 184 186 188 199 205 195 188 192 207 221 229 235 244 253 254 259 281 293 279 265 258 252
160 132 125 192 203 176 148 153 148 133 144 154 155 148 147 145 150 160 175 183 181 178 179 181 187 206 211 196 193 205 215 226 227 230 234 240 245 247 247 259 280 284 274 257
45 125 149 101 67 68 92 108 111 112 117 118 135 145 152 156 168 180 182 172 165 172 183 182 192 217 215 198 201 212 217 228 233 236 239 241 247 252 253 255 256 262 275 277
77 74 72 75 73 60 70 90 104 115 116 115 133 152 162 164 166 166 164 158 159 186 199 195 208 220 207 197 205 217 228 238 237 238 242 247 251 254 258 258 256 255 255 258
87 77 84 87 76 61 68 86 105 115 116 121 138 133 125 120 121 132 160 175 179 191 193 195 215 223 206 200 206 220 231 246 250 250 245 245 248 250 253 254 252 251 252 251
98 106 107 107 101 82 74 84 86 90 102 108 109 106 112 125 143 171 188 180 168 204 225 216 217 211 211 210 211 220 228 239 242 245 248 249 251 250 251 253 256 255 258 260
82 81 78 74 76 78 70 78 87 85 88 100 105 110 124 138 150 164 151 134 154 218 251 244 221 201 217 230 222 229 238 248 254 255 252 257 259 256 255 253 254 252 249 245
68 66 68 66 64 72 71 71 80 77 79 93 95 93 91 94 97 99 103 134 221 235 252 260 227 228 238 245 242 238 243 249 254 259 256 252 253 256 256 256 254 250 245 235
61 59 57 54 50 51 54 66 76 73 71 85 94 104 109 88 84 100 101 62 295 304 318 328 254 266 265 268 260 252 251 254 258 258 259 260 261 259 258 257 256 251 247 242
50 49 45 41 39 29 23 46 66 73 72 73 80 91 88 70 66 71 97 207 247 280 13 323 288 292 302 297 273 265 262 261 261 263 265 264 261 260 261 257 253 252 248 241
43 40 32 21 16 9 15 22 29 53 74 81 101 127 136 149 144 132 268 273 258 265 265 263 280 298 306 305 289 279 275 273 271 269 266 262 259 256 255 257 255 253 251 246
24 5 343 332 356 10 355 330 333 351 32 67 88 137 133 117 33 243 221 253 268 283 280 283 297 305 308 297 291 288 282 277 276 277 274 270 264 261 258 257 260 259 248 236
340 330 329 334 339 315 296 310 338 355 31 47 37 59 123 150 172 248 267 273 288 298 301 304 311 315 315 300 289 288 286 279 279 277 274 277 281 278 271 264 263 267 262 250
320 304 293 283 270 280 298 336 357 347 85 80 12 352 359 341 234 279 296 304 309 299 290 288 297 306 299 293 286 286 290 296 295 288 286 287 286 275 264 261 270 275 271 253
328 331 336 339 338 341 349 8 58 220 160 150 216 280 287 288 281 283 290 287 285 283 281 282 287 291 288 286 288 292 294 292 287 285 288 289 288 278 261 252 248 254 261 255